Regional Weather Roundup
Issued by NWS New Orleans/Baton Rouge, LA

Home | Current Version | Previous Version | Text Only | Print | Product List | Glossary On
Versions: 1 2 3 4 5 6 7 8 9 10 11 12 13 14 15 16 17 18 19 20 21 22 23 24 25 26 27 28 29 30 31 32 33 34 35 36 37 38 39 40 41 42 43 44 45 46 47 48 49 50
739
ASUS44 KLIX 280001
RWRLIX
NEW ORLEANS REGIONAL WEATHER ROUNDUP
NATIONAL WEATHER SERVICE NEW ORLEANS LA
600 PM CST THU NOV 27 2014

NOTE: "FAIR" INDICATES FEW OR NO CLOUDS BELOW 12,000 FEET WITH NO
      SIGNIFICANT WEATHER AND/OR OBSTRUCTIONS TO VISIBILITY.
      SKY/WX - SKY CONDITION AND SIGNIFICANT WEATHER.
      TMP - AIR TEMPERATURE.     DP    - DEWPOINT TEMPERATURE.
      RH  - RELATIVE HUMIDITY.   PRES  - PRESSURE.
      HI  - HEAT INDEX.          WCI   - WIND CHILL INDEX.

*  THESE STATIONS ARE NOT NWS OR FAA STATIONS AND ARE NOT UNDER
   NWS QUALITY CONTROL.

LAZ038-040-048-061>063-065>067-069-280100-
SOUTHEAST LOUISIANA

CITY           SKY/WX    TMP DP  RH WIND       PRES   REMARKS
N.O. AUDUBON     N/A     55  35  47 MISG        N/A
6HR MIN TEMP:  55; 6HR MAX TEMP:  60;

N.O. INTL ARPT CLEAR     54  35  48 N12       30.42R
6HR MIN TEMP:  54; 6HR MAX TEMP:  61;

N.O. LAKEFRONT CLEAR     57  37  47 N17       30.43R
6HR MIN TEMP:  57; 6HR MAX TEMP:  61;

N.O. DOWNTOWN*   N/A     57  32  38 N8        30.42R
6HR MIN TEMP:  55; 6HR MAX TEMP:  59;

SLIDELL        CLEAR     47  36  65 CALM      30.42R
6HR MIN TEMP:  47; 6HR MAX TEMP:  62;

BATON ROUGE    CLEAR     52  27  38 N3        30.43R
6HR MIN TEMP:  52; 6HR MAX TEMP:  62;

BOOTHVILLE     CLEAR     55  42  61 VRB3      30.40S
6HR MIN TEMP:  55; 6HR MAX TEMP:  58;

BELLE CHASSE   CLEAR     54  32  43 N6        30.41R
6HR MIN TEMP:  54; 6HR MAX TEMP:  61;

BOGALUSA*        N/A     46  35  63 N3        30.45R
6HR MIN TEMP:  46; 6HR MAX TEMP:  61;

NEW ROADS*     NOT AVBL
GONZALES*      NOT AVBL
HAMMOND*       NOT AVBL
HOUMA*         CLEAR     52  34  50 N6        30.41R
PORT FOURCHON* CLEAR     55  39  54 N8G14     30.44S

$$

MSZ070-080>082-280100-
SOUTHERN MISSISSIPPI

CITY           SKY/WX    TMP DP  RH WIND       PRES   REMARKS
MCCOMB         CLEAR     49  29  46 N5        30.44R
6HR MIN TEMP:  49; 6HR MAX TEMP:  57;

GULFPORT       CLEAR     51  32  48 N7        30.41R
6HR MIN TEMP:  51; 6HR MAX TEMP:  60;

BILOXI         CLEAR     51  33  49 VRB5      30.41R
6HR MIN TEMP:  51; 6HR MAX TEMP:  60;

PASCAGOULA     CLEAR     47  31  53 N5        30.42R
6HR MIN TEMP:  47; 6HR MAX TEMP:  61;

STENNIS ARPT*  CLEAR     46  32  57 MISG      30.43R

$$

COASTAL OBSERVATIONS
LAKE AND NEARSHORE STATIONS

STATION/POSITION TIME  TEMP    WIND        PRES    WAVE
                       AIR SEA DIR/SP/G            HT/PER
                 (UTC) (F)     (DEG/KT/KT) (MB)    (FT/S)
PASCAGOULA       2300   53     360/  7/  9 1029.1
WAVELAND YACHT   2300   54      10/ 11/ 14 1029.0
GRAND ISLE       2300   58 60   10/ 12/ 15 1029.8
SOUTHWEST PASS   2300   57                 1029.4
NEW CANAL        2300   57 55   10/ 12/ 14 1030.2
SHELL BEACH      2300   57 53   10/ 13/ 16 1029.4

OFFSHORE STATIONS

STATION/POSITION TIME  TEMP    WIND        PRES    WAVE
                       AIR SEA DIR/SP/G            HT/PER
                 (UTC) (F)     (DEG/KT/KT) (MB)    (FT/S)

$$




USA.gov is the U.S. government's official web portal to all federal, state and local government web resources and services.